Airfield :
LOGIN :

Register | Disclaimer

   EN    FR    IT 

 










Legend :    VFR   Marginal VFR   IFR   Intensive IFR   Very Intensive IFR
Visi :
Ceiling :
>= 8 km
>= 3000ft
5 to 8 km
1000 to 3000 ft
1500m to 5 km
500 to 1000 ft
800 to 1500m
200 to 500 ft
< 800m
< 200 ft
Symbols :   Thunderstorms  Fog  Heavy snow  Heavy precipitations  Wind > 20 kt
SIGMETs :     Misc.  Thunderstorms  Icing  Turbulence  Mountain Waves  Volcanic Ashes







- Airport Elevation : 1411 ft
- IATA code : ZHI


LSZG - Grenchen

CURRENT METAR :
  • 250820Z 22004KT 8000 FEW031 09/03 Q1023 NOSIG

EXPIRED METARs :
  • 250750Z AUTO 14002KT 7000 FEW035 08/05 Q1023
  • 250720Z AUTO 12002KT 4900 NCD 06/04 Q1022
  • 250650Z AUTO VRB01KT 5000 NCD 05/04 Q1022
  • 250620Z AUTO VRB02KT 3200 BR NCD 03/02 Q1022
  • 250550Z AUTO VRB02KT 5000 SCT060 04/03 Q1022

TAF TAF LSZG
Valid from the 25 at 09:00 until the 25 at 18:00 UTC


250825Z 2509/2518 VRB03KT 7000 FEW035
PROB30
TEMPO 2511/2518 33010G25KT SHRA
ATIS : +41 32 396 96 33
No reported NOTAMs for that airfield.



MET'MAP, your aeronautical weather chart ! - Copyright ORBIFLY December 2007 - Disclaimer

ORBIFLY MET'MAP TEAM :

Programming & Development : Alexandra Zaïnal
Concept & Development : Baudouin d'Aumeries
Co-Development & Prog : Marc-Olivier Méhu
Technical & hardware support : Manuel Goepfert

Contact : metmap@orbifly.com




SOURCES & CREDITS :

   NOAA